Location: Aufkirchen
(47.9603°N, 11.3653°E)
Time: 16:40:38
(UTC+01:00)

Transit 4A - Pass Details

Date: 30 November 2020
Orbit: 864 x 980 km, 66.8° (Epoch: 26 January)

Event Time Altitude Azimuth Distance (km) Brightness Sun altitude
Rises 16:13:00 0° 325° (NW) 3,686 11.0 0.7°
Reaches altitude 10° 16:15:36 10° 326° (NNW) 2,728 10.4 0.4°
Maximum altitude 16:22:01 82° 55° (NE) 974 8.0 -0.5°
Drops below altitude 10° 16:28:14 10° 143° (SE) 2,650 10.3 -1.4°
Sets 16:30:43 0° 145° (SE) 3,574 10.9 -1.8°
